Location: Gibsondale
(40.9931°N, 80.2478°W)
Time: 07:37:17
(UTC+00:00)

Cosmos 1812 Rocket - Pass Details

Date: 29 October 2020
Orbit: 605 x 633 km, 82.5° (Epoch: 28 November)

Event Time Altitude Azimuth Distance (km) Brightness Sun altitude
Rises 23:47:37 0° 179° (S) 2,890 7.0 -17.1°
Reaches altitude 10° 23:49:51 10° 176° (S) 1,984 6.1 -17.5°
Maximum altitude 23:54:12 65° 95° (E) 681 3.4 -18.3°
Drops below altitude 10° 23:58:33 10° 14° (NNE) 1,982 6.0 -19.1°
Sets 00:00:47 0° 11° (NNE) 2,887 6.9 -19.6°
